DW4221 Weather Reports


time (UTC)temp
F
wind
direction
speed
knots
gust
knots
rain 1hr
in
rain 24hr
in
rain mn
in
humidity
%
barometer
mb
20260505061612 32 315 0.9 15.6 0.00 0.06 0.00 79 1003.5
20260505060059 32 16 1.7 10.4 0.00 0.06 0.00 79 1003.5
20260505054557 32 284 0.9 6.1 0.00 0.06 0.00 79 1003.6
20260505053052 32 234 0.9 10.4 0.00 0.06 0.00 79 1003.4
20260505051550 33 278 1.7 12.2 0.00 0.06 0.00 80 1003.5
20260505041556 34 28 1.7 7.8 0.00 0.06 0.06 82 1002.9
20260505034554 34 269 0.0 6.1 0.00 0.06 0.06 86 1002.8
20260505033100 34 0 0.9 7.0 0.00 0.06 0.06 86 1002.7
20260505031556 35 9 2.6 9.6 0.00 0.06 0.06 83 1003.0
20260505030104 35 291 2.6 7.8 0.00 0.06 0.06 80 1002.7
20260505024553 36 296 0.9 7.0 0.00 0.06 0.06 80 1002.5
20260505023051 36 292 1.7 7.8 0.00 0.06 0.06 80 1002.3
20260505021553 36 0 0.9 7.8 0.00 0.06 0.06 80 1002.2
20260505020051 36 317 1.7 8.7 0.00 0.06 0.06 81 1001.9
20260505014553 36 321 1.7 7.0 0.00 0.06 0.06 84 1001.4
20260505013051 35 188 0.9 9.6 0.00 0.06 0.06 86 1001.5
20260505011552 35 285 0.0 5.2 0.00 0.06 0.06 88 1001.5
20260505010059 35 258 0.9 6.1 0.00 0.06 0.06 87 1001.3
20260505004552 38 264 1.7 12.2 0.00 0.06 0.06 79 1001.4
20260505003051 40 19 1.7 9.6 0.00 0.06 0.06 68 1000.9
20260505001550 40 282 0.9 10.4 0.00 0.06 0.06 68 1001.0
20260505000100 41 281 3.5 13.0 0.00 0.06 0.06 65 1000.8
20260504234602 42 230 2.6 9.6 0.00 0.06 0.06 61 1000.4
20260504233051 42 269 5.2 13.0 0.00 0.06 0.06 61 1000.3
20260504231550 42 250 1.7 10.4 0.00 0.06 0.06 62 1000.2
20260504230113 42 248 3.5 13.9 0.00 0.06 0.06 63 1000.1
20260504224605 42 290 3.5 14.8 0.00 0.06 0.06 64 999.9
20260504223058 42 272 3.5 10.4 0.00 0.06 0.06 63 999.8
20260504221556 42 320 2.6 15.6 0.00 0.06 0.06 63 999.8
20260504220104 42 236 3.5 13.9 0.00 0.06 0.06 63 999.5
20260504214559 43 288 3.5 12.2 0.00 0.06 0.06 64 999.3
20260504213110 43 264 3.5 12.2 0.00 0.06 0.06 64 998.9
20260504211555 43 246 6.1 15.6 0.00 0.06 0.06 63 998.9
20260504210105 44 311 4.3 13.9 0.00 0.06 0.06 63 998.9
20260504204603 44 269 4.3 16.5 0.00 0.06 0.06 64 998.9
20260504203052 44 292 4.3 15.6 0.00 0.06 0.06 65 998.3
20260504201558 45 20 4.3 10.4 0.00 0.06 0.06 68 998.3
20260504200054 43 276 3.5 9.6 0.00 0.06 0.06 71 998.3
20260504194630 43 292 1.7 13.0 0.00 0.06 0.06 70 998.0
20260504193103 45 234 4.3 14.8 0.00 0.06 0.06 66 997.7
20260504191548 44 270 4.3 12.2 0.00 0.06 0.06 66 997.6
20260504184552 46 38 2.6 13.9 0.00 0.06 0.06 68 997.3
20260504183059 45 248 2.6 16.5 0.00 0.06 0.06 75 997.0
20260504181552 43 258 5.2 13.0 0.00 0.06 0.06 76 996.9
20260504180131 43 269 2.6 7.8 0.00 0.06 0.06 83 996.5
20260504174552 43 250 1.7 9.6 0.00 0.06 0.06 79 996.3
20260504173052 43 298 3.5 12.2 0.00 0.06 0.06 85 995.8
20260504171553 45 229 3.5 13.9 0.00 0.06 0.06 74 995.8
20260504120108 43 290 0.9 9.6 0.03 0.06 0.06 94 991.2
20260504100111 50 266 2.6 16.5 0.00 0.00 0.00 70 991.6
20260504081601 57 301 4.3 18.2 0.00 0.00 0.00 44 990.3